Flag for Canada Weather past 2 weeks in Creston, British Columbia, Canada

Now
55 °F

Cool.


Feels Like: 54 °F
Forecast: 35 / 56 °F
Wind: 5 mph from South

Location: Creston

Current Time: Mar 28, 2015 at 7:13:00 PM

Latest Report: Mar 28, 2015 at 6:00 PM


Visibility: N/A

Pressure: 30.17 "Hg

Humidity: 53%

Dew point: 38 °F

Location of CrestonLocation

Historic Weather in Creston — Graph

°F

Creston temperature yesterday

Maximum temperature yesterday: 62 °F (at 5:00 PM)
Minimum temperature yesterday: 40 °F (at 7:00 AM)
Average temperature yesterday: 49 °F

Past Weeks' High & Low Weather Summary

 TemperatureHumidityPressure
High62 °F (Mar 27, 5:00 PM)100% (Mar 14, 11:00 AM)30.41 "Hg (Mar 14, 11:00 AM)
Low31 °F (Mar 17, 8:00 AM)43% (Mar 13, 6:00 PM)29.76 "Hg (Mar 28, 4:00 AM)
Average44 °F84%30.09 "Hg
* Reported Mar 13 6:00 PM — Mar 28 6:00 PM, Creston, Weather by CustomWeather, © 2015

Note: Actual official high and low records may vary slightly from our data, if they occured in-between our weather recording intervals... More about our weather records

Advertising

Creston weather history for previous 24 hours

 ConditionsComfort  
Time TempWeatherWind HumidityBarometerVisibility
6:00 PM
Sat, Mar 28
55 °FCool.5 mph53%30.17 "HgN/A
5:00 PM55 °FCool.9 mph55%30.16 "HgN/A
4:00 PM57 °FRefreshingly cool.8 mph45%30.11 "HgN/A
3:00 PM56 °FRefreshingly cool.14 mph45%30.08 "HgN/A
2:00 PM54 °FCool.9 mph49%30.06 "HgN/A
1:00 PM53 °FCool.6 mph58%30.03 "HgN/A
12:00 PM53 °FCool.15 mph44%30.00 "HgN/A
11:00 AM53 °FCool.8 mph59%29.96 "HgN/A
10:00 AM51 °FCool.9 mph58%29.94 "HgN/A
9:00 AM46 °FCool.10 mph72%29.89 "HgN/A
8:00 AM47 °FCool.17 mph77%29.88 "HgN/A
7:00 AM50 °FCool.16 mph80%29.80 "HgN/A
6:00 AM50 °FCool.12 mph89%29.80 "HgN/A
5:00 AM51 °FCool.15 mph85%29.78 "HgN/A
4:00 AM53 °FCool.7 mph83%29.76 "HgN/A
3:00 AM49 °FCool.13 mph87%29.77 "HgN/A
2:00 AM49 °FCool.6 mph81%29.78 "HgN/A
1:00 AM48 °FCool.3 mph85%29.82 "HgN/A
12:00 AM52 °FCool.2 mph78%29.84 "HgN/A
11:00 PM
Fri, Mar 27
51 °FCool.1 mph84%29.86 "HgN/A
10:00 PM53 °FCool.1 mph76%29.89 "HgN/A
9:00 PM54 °FCool.2 mph76%29.91 "HgN/A
8:00 PM54 °FCool.1 mph77%29.92 "HgN/A
7:00 PM57 °FCool.3 mph76%29.93 "HgN/A
Weather by CustomWeather, © 2015

See weather overviewHow to use our weather pages